Rock Hill, SC

7:39 PM EDT on July 25, 2016 (GMT -0400)
Rock Hill-York County-Bryant

Weather History for KUZA - July, 2013

Change the Weather History Date:

Monday, July 22, 2013

  Actual Average Record
Temperature  
Mean Temperature 79 °F -  
Max Temperature 87 °F 90 °F 101 °F (1983)
Min Temperature 71 °F 70 °F 57 °F (2001)
Cooling Degree Days 14    
Growing Degree Days 29 (Base 50)    
Moisture  
Dew Point 72 °F    
Average Humidity 87    
Maximum Humidity 100    
Minimum Humidity 65    
Precipitation  
Precipitation 0.01 in - - ()
Sea Level Pressure  
Sea Level Pressure 29.93 in    
Wind  
Wind Speed 5 mph (SW)    
Max Wind Speed 13 mph    
Max Gust Speed 22 mph    
Visibility 9 miles    
Events Rain , Thunderstorm    
Averages and records for this station are not official NWS values.
T = Trace of Precipitation, MM = Missing Value Source: NWS Daily Summary

Daily Weather History Graph

Daily Weather History Graph

Search for Another Location

Airport or City:

Trip Planner

Search our weather history database for the weather conditions in past years. The results will help you decide how hot, cold, wet, or windy it might be!

Date:

Astronomy

Jul. 22, 2013 Rise Set
Actual Time 6:26 AM EDT 8:34 PM EDT
Civil Twilight 5:58 AM EDT 9:02 PM EDT
Nautical Twilight 5:23 AM EDT 9:37 PM EDT
Astronomical Twilight 4:45 AM EDT 10:15 PM EDT
Moon 8:23 PM EDT (7/22) 6:18 AM EDT (7/22)
Length of Visible Light 15h 04m
Length of Day
14h 07m
Full, 100% of the Moon is Illuminated
Jul 22
Full
Jul 22
Full
Jul 29
Last Quarter
Aug 6
New
Aug 14
First Quarter

Hourly Weather History & Observations

Time (EDT) Temp. Heat Index Dew Point Humidity Pressure Visibility Wind Dir Wind Speed Gust Speed Precip Events Conditions
12:54 AM 73.0 °F - 72.0 °F 96% 29.97 in 7.0 mi Variable 4.6 mph - 0.00 in Rain Light Rain
1:35 AM 73.0 °F - 72.0 °F 96% 29.98 in 8.0 mi Calm Calm - 0.00 in   Scattered Clouds
1:54 AM 72.0 °F - 72.0 °F 100% 29.94 in 7.0 mi Calm Calm - 0.01 in Rain Light Rain
2:46 AM 72.0 °F - 71.1 °F 97% 29.95 in 5.0 mi NW 4.6 mph - 0.00 in   Scattered Clouds
2:54 AM 72.0 °F - 71.1 °F 97% 29.91 in 8.0 mi WNW 3.5 mph - 0.00 in   Scattered Clouds
3:11 AM 72.0 °F - 71.1 °F 97% 29.94 in 8.0 mi Calm Calm - N/A   Mostly Cloudy
3:21 AM 72.0 °F - 71.1 °F 97% 29.94 in 8.0 mi SW 3.5 mph - N/A   Scattered Clouds
3:31 AM 72.0 °F - 71.1 °F 97% 29.95 in 7.0 mi SSW 3.5 mph - N/A   Mostly Cloudy
3:54 AM 72.0 °F - 72.0 °F 100% 29.91 in 6.0 mi SW 3.5 mph - N/A   Overcast
4:04 AM 72.0 °F - 72.0 °F 100% 29.95 in 6.0 mi SSW 3.5 mph - N/A   Overcast
4:54 AM 71.1 °F - 71.1 °F 100% 29.91 in 7.0 mi SSW 4.6 mph - N/A   Overcast
5:39 AM 72.0 °F - 71.1 °F 97% 29.96 in 7.0 mi SW 4.6 mph - N/A   Overcast
5:54 AM 72.0 °F - 71.1 °F 97% 29.93 in 6.0 mi SW 6.9 mph - N/A   Overcast
6:30 AM 71.1 °F - 71.1 °F 100% 29.98 in 8.0 mi WSW 3.5 mph - N/A   Overcast
6:54 AM 72.0 °F - 71.1 °F 97% 29.95 in 7.0 mi WSW 4.6 mph - N/A   Overcast
7:24 AM 72.0 °F - 71.1 °F 97% 29.99 in 9.0 mi SW 4.6 mph - N/A   Overcast
7:54 AM 72.0 °F - 71.1 °F 97% 29.96 in 8.0 mi SW 5.8 mph - N/A   Overcast
8:54 AM 73.0 °F - 71.1 °F 93% 29.97 in 10.0 mi WSW 4.6 mph - N/A   Overcast
9:01 AM 73.9 °F - 71.1 °F 91% 30.01 in 10.0 mi West 6.9 mph - N/A   Overcast
9:54 AM 73.0 °F - 71.1 °F 93% 29.98 in 9.0 mi SW 4.6 mph - N/A   Overcast
10:54 AM 75.0 °F - 71.1 °F 87% 29.98 in 10.0 mi WSW 5.8 mph - N/A   Overcast
11:28 AM 77.0 °F - 72.0 °F 84% 30.01 in 10.0 mi WSW 9.2 mph - N/A   Overcast
11:54 AM 77.0 °F - 72.0 °F 84% 29.97 in 10.0 mi WSW 6.9 mph - N/A   Overcast
12:54 PM 80.1 °F 83.8 °F 72.0 °F 76% 29.96 in 10.0 mi WSW 8.1 mph - N/A   Overcast
1:54 PM 82.0 °F 87.4 °F 73.0 °F 74% 29.94 in 10.0 mi SSW 9.2 mph - N/A   Mostly Cloudy
2:01 PM 82.0 °F 87.4 °F 73.0 °F 74% 29.97 in 10.0 mi SSW 10.4 mph - N/A   Overcast
2:45 PM 82.9 °F 88.0 °F 72.0 °F 69% 29.95 in 10.0 mi WSW 8.1 mph - N/A   Scattered Clouds
2:54 PM 84.9 °F 91.4 °F 73.0 °F 67% 29.91 in 10.0 mi SW 11.5 mph - N/A   Scattered Clouds
3:54 PM 86.0 °F 93.0 °F 73.0 °F 65% 29.88 in 10.0 mi WSW 10.4 mph - N/A   Mostly Cloudy
4:54 PM 87.1 °F 95.4 °F 73.9 °F 65% 29.87 in 10.0 mi SSW 12.7 mph - N/A Thunderstorm Partly Cloudy
5:17 PM 82.9 °F 88.0 °F 72.0 °F 69% 29.91 in 10.0 mi WSW 9.2 mph 21.9 mph N/A   Scattered Clouds
5:54 PM 81.0 °F 85.8 °F 73.0 °F 77% 29.86 in 10.0 mi West 6.9 mph - 0.00 in   Partly Cloudy
6:54 PM 82.9 °F 88.8 °F 73.0 °F 72% 29.85 in 10.0 mi WSW 9.2 mph - N/A   Clear
7:54 PM 81.0 °F 85.2 °F 72.0 °F 74% 29.85 in 10.0 mi SW 10.4 mph - N/A   Clear
8:54 PM 78.1 °F - 72.0 °F 81% 29.86 in 10.0 mi SSW 9.2 mph - N/A   Clear
9:54 PM 77.0 °F - 72.0 °F 84% 29.86 in 10.0 mi SW 8.1 mph - N/A   Clear
10:54 PM 77.0 °F - 72.0 °F 84% 29.87 in 10.0 mi SW 6.9 mph - N/A   Clear
11:54 PM 77.0 °F - 73.0 °F 88% 29.87 in 10.0 mi SW 9.2 mph - N/A   Clear